FENGYUN 1C DEB, 32177

Orbit data source: Space-Track

FENGYUN 1C DEB, 32177 is space debris in SSO originally from a launch on Mon, 10 May 1999 UTC launched from the Taiyaun Space Center, China (TSC). Fengyun 1C debris stems from the Chinese weather satellite Fengyun-1C, which was intentionally destroyed by a Chinese anti-satellite missile in 2007. This event dramatically increased the amount of space debris, with thousands of trackable fragments posing hazards to satellites and human spaceflight. The Fengyun 1C debris cloud has become a focal point in discussions about space sustainability and the need for international regulations to prevent the creation of new debris.

Loading next visibility...
Identifier
32177, 1999-025CTX
Orbit
SSO
Country
Flag of CNCN / PRC
Related business
Manufacturer
Unknown
Mission
Spacecraft
Bus & Motor
Unknown
Mass
Unknown
Launch date (UTC)
1999-05-10 (27 years ago)
Launch vehicle
Unknown
Launch site
Taiyaun Space Center, China (TSC)
Object type
Payload
Rocket body
Debris
Shape & HBR
Unknown shape, 0.1 m
Radar Cross Section
Small (<0.1 m²)

Expand to show TLE details & history
Last TLE update: 15 hours ago

TLE from 15 hours ago
0 FENGYUN 1C DEB
1 32177U 99025CTX 26167.89764622  .00003827  00000-0  82461-3 0  9995
2 32177  99.0312 198.0466 0048891 198.2924 161.6516 14.58362879737506
Epoch: 2026-06-16T21:32Z
TLE epoch observation values (Epoch: 2026-06-16T21:32:36.633Z)
Latitude
-0°
Longitude
-30.26912°
Altitude
734.284 km
Speed
7.471 km/s
True Right ascension
13h 12m 11s
True Declination
0° 00' 00"
Sunlit
Object was in daylight at epoch
Visualization orbit readout
Latitude
Unknown
Longitude
Unknown
Altitude
Unknown
Speed
Unknown
Apparent Right ascension
Unknown
Apparent Declination
Unknown
Sunlit
N/A
Visualization observer readout
Local Sidereal Time
23:22:51
Azimuth
Unknown
Elevation
Unknown
Doppler factor
Unknown
Orbital elements
Apogee altitude
730.173 km
Perigee altitude
661.004 km
Semi-major axis
7,073.725 km
Eccentricity
0.00489
Inclination
99.0312°
RAAN
198.0466°
Arg. of periapsis
198.2924°
True anomaly
161.82695°
Mean anomaly
161.6516°
Eccentric anomaly
161.73937°
Mean motion
3.64813 °/min
Orbital period
98.68 mins
BSTAR
0.00082461
Loading maneuver chart data...
Computing Atmospheric mass density...
Loading historical data...
Loading historical data...
Loading historical data...
Loading historical data...
Loading historical data...
Loading historical data...
Loading historical data...

Documentation

Showing up to 5 results
|